Vertical_Velocity
1 0 2 -1 1 1 1 -1 -2 -2 -2 -1 0 0 0 -0 -2 -1 -0 1 0 -1 -1 -0 -1 -2 -5 -1 -6 1 -0 0 -2 -2 -2 1 2 1 1 1 1 6 -5 2 -2 -1 0
-0 1 -0 -1 -1 -1 -1 -0 0 -0 -0 0 0 -1 -1 -1 -1 0 0 -1 -0 -1 -0 -1 1 -2 -3 1 -1 -5 1 -0 1 -2 -3 -3 2 -2 1 -1 6 -1 2 -3 -2 -6 -2
-9 -3 -1 2 1 -1 -1 -2 -1 0 0 -2 -1 -0 -0 -0 -2 -1 -1 -1 -0 -1 -0 0 0 -1 -1 -18 1 -4 -3 -4 -1 -2 -2 1 -1 18 4 0 -3 0 1 -1 -1 -6 -4
-1 1 -8 -4 -1 -1 2 -1 -0 -1 -1 -1 -0 -1 -2 -1 -1 -1 -1 1 -0 -1 -1 1 1 -0 -10 0 1 -1 -1 -8 2 3 8 -5 1 5 13 1 -2 2 2 1 -8 1 -8
-1 1 1 -2 -5 -1 -1 -1 0 -1 -1 -1 -0 -0 -1 -1 -0 -1 -0 0 -0 -0 -0 0 -1 3 -10 -1 -1 -0 2 2 -0 -6 -4 -2 7 3 5 6 1 2 -1 1 -4 -2 1
-0 1 -1 -1 2 -6 -2 1 0 -0 -0 -1 -3 -2 -1 -1 0 -0 -0 -1 -1 -1 0 -0 1 10 1 -3 2 -1 1 -3 -0 -2 -2 2 2 1 2 2 -5 -1 1 0 -2 -3 4
-1 1 1 -2 -3 2 -4 -2 2 1 0 0 -2 -3 -2 -1 0 -0 1 -0 -1 1 2 -4 5 -3 -3 -1 0 -4 -2 -3 2 1 1 -1 1 -2 -4 -2 -1 -0 1 0 -1 -2 3
-1 0 -0 -3 -1 -2 0 -3 -1 1 2 0 -1 -2 -2 -3 -0 1 1 -2 -2 0 -8 0 -0 -0 -0 1 -6 1 4 1 1 1 1 2 -2 -5 0 1 3 2 2 -7 -5 -2 10
1 -0 -2 1 -2 -2 -1 -3 2 -1 2 -1 -0 0 -2 -2 -2 1 1 -0 -0 -0 2 -7 0 1 -1 1 -3 -7 0 -0 1 1 -0 1 -2 -0 4 -0 7 -1 1 -2 -2 -2 1
-0 2 2 -1 -1 -2 -2 -1 -1 3 -2 0 -2 1 -0 -2 -0 -0 1 -1 0 -1 -3 -12 -2 -3 -1 -4 -3 5 -1 -3 1 -1 0 1 -3 2 2 0 6 6 -3 2 3 8 -1
1 -2 1 2 -2 -2 -2 -2 -4 1 2 -1 -2 2 -2 0 2 -2 0 -0 -0 -0 -9 -14 3 -1 1 2 -6 -5 -0 7 -1 -2 2 -12 0 1 3 -7 0 -12 3 -0 0 2 4
-2 2 -1 1 0 -4 -1 2 -3 -1 1 3 -2 -2 -0 0 0 -2 1 -1 -0 -18 -13 -7 -1 -2 0 3 -0 4 1 5 4 2 3 -6 0 1 -2 -2 -0 -2 1 1 1 -1 4
0 -0 -0 -1 2 -1 2 -4 -0 -2 1 0 3 -2 -1 0 1 -2 2 -3 -13 -9 -11 -7 -3 1 0 -2 -2 1 0 1 -1 -1 -1 -2 -1 -1 4 2 2 6 1 -1 2 0 -7
1 -1 -1 -0 3 1 -5 2 -3 1 0 -1 3 1 -2 0 -0 -0 2 -8 -6 -6 -2 -2 -0 0 1 -0 -2 -1 1 -1 1 1 0 2 -9 0 0 -2 -2 -3 -2 0 1 -2 -4
-0 5 0 -4 1 4 -3 -2 -1 -1 1 3 -1 3 -3 1 -3 2 0 -4 -10 -2 -1 1 -5 2 -2 1 -1 1 0 -0 -1 -1 -1 0 -6 -0 1 -1 -0 -0 -3 -4 0 -1 -2
2 3 1 -1 -1 1 -0 -3 4 -6 2 2 -1 3 -2 0 -1 2 -4 -3 -1 -0 -1 1 1 0 0 -1 2 1 -1 -2 -0 0 0 -5 -2 -2 -3 4 -2 -2 -1 -10 -5 -1 -0
-2 6 0 -1 2 -3 2 1 -2 3 -2 1 3 2 0 2 2 0 -4 -5 -0 -0 -4 1 0 -0 -0 0 1 -1 -3 0 -0 -2 1 0 -1 -14 -2 -1 -1 2 0 -1 -3 0 2
14 11 5 5 -4 -2 -0 1 -1 1 2 3 1 -0 1 2 -2 0 -1 -3 -1 -1 3 -1 2 1 0 -0 0 0 0 -1 -1 1 -0 -1 1 -1 -4 -2 -0 1 -1 -2 -2 -3 -1
7 16 9 8 2 -3 0 1 0 2 3 -5 1 -1 2 2 -2 -0 -3 -1 -2 1 -0 0 -0 -0 -0 0 -1 1 -0 -1 -0 -0 -1 -2 -3 -3 -13 -12 -5 1 -1 -1 -1 -1 -1
-17 -2 8 4 9 -2 1 -4 1 3 0 1 0 -1 1 2 2 -0 0 -2 -1 2 -1 1 -1 2 1 0 -0 -3 -0 -1 -0 -0 0 -1 -0 -4 -6 -6 -1 -1 -1 -0 -3 -2 -1
2 12 -1 4 1 3 -0 -1 -5 2 1 5 -1 -4 -4 -1 -1 1 1 0 0 -0 0 1 -2 0 -1 1 -1 0 -1 -3 0 0 -1 -1 -0 1 -2 -1 1 0 0 -1 1 -1 -1
11 6 3 -5 8 -2 1 1 -3 2 3 2 -3 -2 3 0 3 1 -0 -3 -1 -2 -5 -2 1 -1 1 0 -3 -1 0 0 -0 -4 0 0 -4 1 -2 -1 1 0 -1 0 -0 0 1
-8 -15 27 2 -4 2 -2 1 3 1 4 -1 2 -2 1 -2 1 -3 -4 -4 -2 -1 -1 1 -2 1 1 -3 -1 -1 -0 1 -1 0 -0 1 -1 -2 -4 0 -1 -2 -5 -1 -1 -0 -2
26 -6 14 4 11 5 8 -3 3 -3 0 6 -1 -2 1 -4 0 -4 0 -1 -0 -1 -2 -1 -0 1 -1 -1 -1 3 3 1 3 -2 0 -0 0 -1 -2 -3 -5 -16 -0 -1 -4 -1 0
19 8 38 8 -6 7 7 1 1 -3 3 4 1 -3 0 -1 0 -0 1 -1 2 0 -0 -1 0 -1 -1 -0 -3 -3 -4 -3 -2 -1 1 -1 -0 -1 -3 -0 -10 -2 -1 -0 -5 -5 1
-21 5 17 79 17 1 4 6 0 2 2 4 1 3 -1 -3 -5 2 0 -1 -2 -0 -2 -0 -1 -0 0 -0 -1 -0 -1 -2 -1 -2 -0 -0 -1 -2 -1 1 -0 -2 -2 1 1 -5 1
-1 -8 1 26 34 -5 -4 6 0 4 3 5 -2 0 3 -2 -2 1 -1 -3 3 1 -2 1 -1 -1 0 -0 -0 -0 -2 -1 -2 0 -1 -0 0 -2 -1 -0 -9 -2 -0 -0 -3 -5 0
-6 -9 -1 -6 16 12 0 10 0 2 5 -1 -3 1 -1 -2 -2 -1 3 -3 1 1 -3 0 -5 -2 -1 -1 -0 -1 0 -2 -0 -2 -3 -4 -3 -1 0 1 -8 -1 -2 -1 -5 0 0
-5 1 3 7 13 22 9 6 2 3 1 4 2 3 1 -3 -0 -0 1 -3 -1 1 0 1 -2 -1 -3 -2 -1 -0 -1 -0 -1 -2 -0 -4 -9 -6 -10 -12 -3 -1 -2 -1 0 -2 -0
Height
1552 1552 1551 1551 1551 1551 1550 1549 1549 1548 1548 1547 1546 1545 1543 1541 1540 1538 1536 1535 1533 1532 1530 1528 1526 1525 1524 1524 1522 1520 1519 1519 1518 1517 1516 1517 1518 1519 1517 1514 1514 1510 1504 1509 1510 1509 1506
1549 1549 1549 1549 1549 1548 1548 1547 1547 1547 1546 1545 1544 1543 1541 1539 1538 1536 1534 1532 1531 1529 1528 1526 1525 1524 1524 1524 1519 1518 1518 1517 1516 1515 1515 1516 1515 1517 1515 1513 1513 1506 1507 1506 1506 1506 1505
1546 1546 1546 1546 1546 1546 1546 1546 1545 1545 1544 1544 1542 1541 1539 1537 1535 1533 1531 1529 1528 1526 1525 1524 1524 1523 1523 1520 1518 1517 1516 1515 1513 1512 1510 1512 1513 1514 1510 1511 1507 1506 1507 1504 1502 1502 1502
1545 1545 1543 1543 1543 1543 1543 1543 1543 1543 1542 1541 1540 1538 1536 1535 1533 1531 1529 1526 1525 1524 1523 1523 1523 1523 1519 1517 1516 1515 1514 1512 1511 1508 1507 1507 1508 1508 1508 1507 1505 1505 1506 1507 1493 1496 1495
1542 1541 1542 1541 1540 1540 1540 1540 1540 1540 1539 1538 1537 1535 1534 1533 1531 1528 1526 1524 1522 1521 1521 1522 1523 1521 1518 1516 1514 1513 1512 1509 1506 1503 1501 1502 1504 1505 1505 1507 1510 1507 1514 1503 1499 1493 1492
1540 1539 1538 1538 1538 1537 1537 1537 1537 1537 1535 1534 1534 1533 1532 1530 1529 1527 1524 1522 1520 1520 1521 1521 1522 1525 1517 1515 1513 1510 1509 1507 1504 1501 1500 1500 1500 1501 1503 1505 1501 1504 1506 1498 1493 1487 1487
1537 1536 1536 1535 1535 1535 1535 1535 1534 1534 1532 1531 1531 1530 1529 1528 1527 1526 1524 1521 1523 1522 1520 1519 1519 1516 1515 1513 1511 1508 1507 1505 1503 1502 1501 1501 1501 1502 1498 1501 1498 1498 1498 1498 1492 1487 1488
1534 1534 1534 1533 1533 1533 1533 1533 1532 1531 1530 1528 1528 1527 1527 1527 1526 1525 1523 1522 1523 1523 1519 1516 1516 1515 1513 1511 1510 1506 1506 1505 1503 1499 1499 1500 1497 1493 1494 1496 1497 1496 1498 1495 1492 1489 1489
1530 1530 1530 1530 1530 1530 1530 1530 1530 1529 1527 1526 1525 1525 1525 1525 1525 1525 1523 1523 1521 1522 1522 1515 1514 1513 1512 1512 1509 1505 1504 1503 1502 1501 1497 1496 1490 1490 1492 1492 1491 1487 1486 1487 1487 1482 1481
1527 1527 1527 1527 1527 1527 1527 1527 1527 1526 1525 1524 1523 1523 1524 1524 1526 1524 1522 1522 1521 1521 1524 1520 1512 1512 1511 1509 1507 1502 1501 1503 1501 1498 1496 1495 1489 1488 1487 1487 1488 1482 1477 1481 1479 1482 1475
1523 1522 1523 1523 1523 1523 1524 1524 1524 1523 1522 1521 1521 1522 1522 1521 1522 1523 1523 1521 1520 1521 1542 1514 1511 1510 1507 1508 1503 1499 1498 1497 1495 1492 1496 1489 1484 1481 1480 1478 1478 1472 1473 1471 1465 1471 1472
1517 1518 1518 1519 1518 1519 1520 1521 1521 1521 1520 1519 1519 1520 1520 1521 1520 1521 1520 1519 1521 1531 1536 1516 1509 1508 1506 1501 1499 1496 1496 1496 1492 1490 1486 1483 1480 1481 1477 1473 1471 1469 1466 1455 1456 1460 1460
1510 1511 1512 1514 1514 1514 1516 1518 1518 1518 1518 1516 1516 1517 1518 1518 1519 1519 1519 1519 1531 1539 1513 1511 1508 1506 1505 1501 1496 1495 1493 1493 1494 1491 1487 1478 1478 1474 1474 1471 1469 1471 1469 1462 1457 1468 1469
1503 1504 1505 1508 1509 1509 1511 1513 1516 1515 1515 1514 1513 1514 1516 1517 1518 1518 1518 1520 1538 1517 1508 1503 1504 1504 1503 1495 1494 1492 1490 1490 1484 1487 1491 1484 1480 1470 1466 1465 1461 1464 1463 1465 1459 1464 1461
1494 1496 1498 1501 1504 1504 1506 1509 1511 1513 1513 1512 1511 1512 1513 1515 1516 1517 1518 1530 1523 1515 1503 1503 1501 1502 1500 1493 1493 1491 1487 1485 1480 1481 1488 1488 1481 1462 1462 1458 1457 1454 1465 1456 1457 1453 1454
1484 1488 1490 1494 1497 1499 1501 1504 1507 1509 1510 1510 1510 1511 1512 1514 1515 1517 1517 1518 1508 1501 1502 1502 1504 1497 1497 1493 1494 1490 1483 1480 1480 1479 1478 1478 1481 1462 1457 1457 1455 1454 1456 1463 1465 1460 1451
1474 1478 1483 1486 1490 1493 1496 1498 1502 1505 1507 1507 1509 1510 1510 1511 1514 1516 1520 1514 1502 1499 1500 1502 1500 1499 1495 1494 1490 1487 1482 1480 1478 1477 1476 1474 1475 1469 1460 1457 1457 1456 1460 1462 1466 1468 1461
1464 1468 1472 1477 1482 1486 1491 1494 1496 1500 1503 1505 1507 1509 1508 1509 1513 1512 1513 1501 1499 1498 1498 1500 1498 1498 1496 1493 1490 1486 1481 1478 1478 1477 1477 1474 1474 1481 1463 1454 1454 1454 1453 1455 1462 1467 1464
1455 1459 1462 1468 1473 1479 1484 1488 1490 1495 1498 1501 1502 1504 1506 1507 1509 1508 1500 1496 1496 1496 1496 1497 1495 1493 1490 1491 1493 1484 1479 1476 1477 1476 1475 1475 1475 1488 1468 1463 1456 1456 1450 1450 1453 1466 1463
1445 1450 1456 1460 1465 1471 1477 1482 1485 1489 1493 1497 1499 1502 1505 1504 1501 1500 1498 1495 1495 1491 1492 1493 1491 1490 1490 1489 1486 1484 1478 1475 1475 1474 1474 1475 1475 1476 1486 1471 1466 1463 1453 1449 1448 1466 1457
1438 1441 1446 1453 1456 1464 1470 1475 1480 1483 1487 1492 1492 1491 1491 1499 1495 1493 1494 1491 1490 1490 1490 1490 1489 1489 1488 1490 1485 1480 1479 1477 1474 1473 1473 1474 1476 1473 1469 1465 1462 1460 1456 1450 1449 1450 1457
1429 1431 1438 1441 1448 1455 1464 1469 1473 1478 1482 1486 1485 1487 1487 1486 1483 1488 1491 1489 1486 1487 1488 1487 1488 1484 1485 1486 1484 1484 1481 1479 1477 1475 1472 1471 1475 1470 1470 1459 1461 1461 1455 1453 1448 1446 1446
1424 1422 1423 1433 1441 1447 1454 1463 1468 1471 1475 1476 1480 1482 1483 1482 1480 1485 1484 1482 1480 1481 1482 1481 1483 1484 1483 1481 1480 1478 1478 1476 1476 1476 1475 1473 1474 1478 1475 1463 1461 1461 1447 1447 1444 1440 1439
1421 1418 1421 1427 1432 1440 1447 1455 1462 1466 1468 1472 1473 1478 1481 1480 1478 1477 1475 1477 1478 1480 1482 1480 1481 1482 1481 1479 1477 1475 1474 1473 1473 1472 1473 1474 1473 1479 1479 1469 1476 1443 1438 1436 1436 1433 1436
1417 1414 1411 1417 1427 1433 1441 1449 1455 1461 1464 1467 1470 1474 1476 1476 1474 1472 1472 1475 1475 1477 1480 1479 1479 1479 1479 1478 1479 1477 1476 1473 1469 1470 1471 1472 1474 1477 1477 1477 1457 1438 1440 1438 1438 1436 1437
1419 1414 1414 1409 1416 1428 1435 1443 1451 1457 1461 1463 1467 1470 1473 1474 1471 1471 1470 1471 1475 1477 1479 1477 1477 1478 1479 1478 1480 1478 1478 1468 1471 1471 1470 1471 1472 1478 1478 1470 1460 1442 1440 1439 1437 1444 1438
1419 1416 1412 1410 1414 1423 1430 1439 1447 1452 1456 1459 1462 1466 1470 1471 1468 1469 1468 1470 1471 1472 1475 1476 1476 1477 1478 1480 1480 1480 1477 1469 1473 1468 1473 1476 1475 1477 1479 1476 1458 1442 1440 1439 1442 1446 1440
1422 1420 1418 1415 1414 1420 1427 1434 1441 1447 1452 1455 1459 1462 1465 1466 1466 1467 1467 1468 1470 1470 1473 1475 1477 1477 1479 1481 1480 1476 1475 1470 1470 1465 1468 1471 1476 1476 1475 1473 1470 1442 1442 1441 1443 1442 1441
1420 1412 1413 1412 1410 1416 1422 1429 1436 1442 1447 1452 1456 1458 1461 1464 1464 1463 1465 1465 1468 1468 1469 1470 1471 1472 1472 1476 1477 1474 1473 1472 1469 1467 1460 1466 1461 1461 1463 1455 1441 1441 1441 1441 1440 1441 1441